Location: Hillsboro
(38.3483°N, 97.1938°W)
Time: 08:40:50
(UTC-05:00)

Daily predictions for brighter satellites

Satellite Brightness Start Highest point End
(mag) Time Altitude Azimuth Time Altitude Azimuth Time Altitude Azimuth
Cosmos 1937 Rocket 3.5 20:04:53 10° SSW 20:10:06 80° ESE 20:15:25 10° NNE
Cosmos 1378 3.3 20:06:36 10° N 20:10:17 52° E 20:13:56 10° SSE
SJ-6B 2.7 20:08:05 10° SSE 20:11:45 60° ENE 20:15:26 10° N
SL-27 R/B 3.2 20:08:27 10° N 20:11:46 34° ENE 20:15:06 10° SE
SeaSat 1 2.7 20:07:19 10° SE 20:12:05 52° ENE 20:16:53 10° NNW
Cosmos 1812 Rocket 3.6 20:10:02 10° S 20:14:23 62° E 20:18:44 10° NNE
H-2A R/B (2) 3.0 20:14:22 10° SW 20:16:34 20° S 20:19:57 10° ESE
Cosmos 1833 Rocket 4.3 20:13:55 10° NNE 20:17:26 17° NE 20:20:57 10° E
OE (NEXTSAT) 4.5 20:16:05 10° WSW 20:19:41 83° NNW 20:23:17 10° ENE
Cosmos 2278 Rocket 2.3 20:14:27 10° S 20:19:59 58° ESE 20:25:34 10° NNE
Cosmos 1821 Rocket 4.1 20:14:32 10° S 20:20:56 83° E 20:27:18 10° N
FENGYUN 3A 3.7 20:15:51 10° SSE 20:21:10 63° ENE 20:26:30 10° N
Meteor 1-4 Rocket 3.9 20:21:21 10° SE 20:23:49 18° E 20:26:18 10° NE
CZ-3B DEB 3.5 20:13:41 10° SW 20:26:39 73° NW 20:32:25 10° NE
Resurs 01 Rocket 1.9 20:23:36 10° SE 20:27:48 46° ENE 20:32:03 10° N
Delta 2 Rocket 4.1 20:23:23 10° W 20:28:08 50° SSW 20:32:00 12° ESE
Helios 1B rocket 3.7 20:25:07 10° NE 20:28:16 21° E 20:31:23 10° SE
Cosmos 1544 3.8 20:26:50 10° SSE 20:30:03 30° E 20:33:17 10° NNE
FengYun 1-2 T 4.2 20:27:16 10° SSE 20:32:47 74° ENE 20:38:24 10° N
H-2A R/B 2.9 20:29:56 10° SSE 20:33:42 52° ENE 20:37:32 10° N
Cosmos 2297 4.3 20:29:46 10° SSE 20:34:49 34° ESE 20:39:54 10° NE
Cosmos 1758 4.0 20:31:23 10° SSE 20:34:54 31° E 20:38:27 10° NNE
Lacrosse 4 Rocket 3.5 20:31:29 10° WSW 20:35:04 30° WNW 20:38:40 10° N
ATLAS 5 CENTAUR R/B 3.0 20:32:18 10° SSE 20:35:32 19° ESE 20:38:55 10° ENE
Helios 1A 4.0 20:33:38 12° ESE 20:36:48 26° ENE 20:40:18 10° NNE
GPS 2-05 Rocket1 4.3 20:34:23 10° SW 20:37:20 24° SSE 20:39:10 16° ESE
Cosmos 1605 Rocket 4.0 20:32:51 10° S 20:38:58 62° E 20:45:14 10° NNE
Cosmos 1953 2.8 20:39:51 10° SSE 20:43:36 37° E 20:47:21 10° NNE
Cosmos-2242 4.2 20:44:00 16° ESE 20:45:51 21° E 20:49:04 10° NE
Meteor 1-24 Rocket 3.9 20:41:06 10° NNW 20:46:36 78° W 20:52:18 10° S
Cosmos 1939 Rocket 4.4 20:46:50 17° E 20:47:35 18° ENE 20:50:26 10° NNE
Cosmos 372 Rocket 4.4 20:46:43 10° SSE 20:51:20 36° E 20:56:00 10° NE
Cosmos 2082 Rocket 3.0 20:46:26 10° N 20:51:34 33° ENE 20:54:34 20° ESE
ALOS 2.9 20:47:58 10° S 20:52:34 59° W 20:57:11 10° NNW
Cosmos 2123 Rocket 4.0 20:47:58 10° N 20:54:19 89° WSW 21:00:35 10° S
Cosmos 1867 3.7 20:49:44 10° S 20:54:57 50° ESE 21:00:14 10° NE
Cosmos 1766 4.4 20:55:48 10° SSW 20:59:31 45° W 21:03:16 10° N
Cosmos 1271 Rocket 3.7 21:00:42 27° E 21:00:42 27° E 21:03:57 10° NNE
CZ-4B DEB 3.6 21:03:42 30° ENE 21:03:42 30° ENE 21:06:10 10° N
USA 215 3.4 20:57:36 10° NE 21:03:56 52° SE 21:10:15 10° SSW
Spot 2 Rocket 3.6 20:59:16 10° S 21:04:21 78° WSW 21:09:30 10° NNW
Lacrosse 5 rocket 3.2 21:03:29 10° N 21:05:46 15° NNE 21:06:37 14° NE
ISS -2.0 21:05:57 10° S 21:07:13 18° S 21:07:13 18° S
Resurs 1-3 3.9 21:06:10 10° S 21:10:31 68° WSW 21:14:54 10° NNW
Cosmos 1153 Rocket 4.5 21:04:39 10° S 21:11:01 76° E 21:17:26 10° N
Cosmos 2061 Rocket 4.4 21:06:01 10° SSE 21:11:52 40° E 21:17:48 10° NNE
Spot 1 4.2 21:10:46 17° SSE 21:14:16 75° ENE 21:19:09 10° N
RESURS DK-1 3.8 21:13:38 10° NW 21:17:28 37° WSW 21:21:15 10° S
Timation 2 Rocket 4.3 21:11:46 10° NNW 21:17:49 46° ENE 21:20:08 32° ESE
Cosmos 1674 2.6 21:18:25 10° N 21:22:10 57° E 21:22:20 56° E
Envisat 3.0 21:20:14 32° SE 21:22:23 57° ENE 21:27:21 10° N
Cosmos 1408 Rocket 3.5 21:21:43 10° N 21:26:12 69° E 21:27:37 42° SSE
CZ-2D R/B 4.3 21:23:30 10° S 21:27:12 44° W 21:30:56 10° NNW
Lacrosse 5 3.6 21:24:38 10° W 21:29:08 31° NW 21:33:39 10° NNE
Cosmos 1125 Rocket 3.8 21:25:40 10° SSW 21:30:50 69° WNW 21:36:03 10° NNE
SAR-Lupe-4 4.1 21:29:54 29° SSW 21:31:29 56° W 21:35:01 10° NNW
Meteor 1-21 Rocket 4.3 21:27:46 10° N 21:33:38 84° W 21:38:30 16° S
Cosmos 1459 Rocket 3.9 21:28:15 10° S 21:34:28 67° E 21:40:37 10° NNE
Tiangong 1 2.9 21:32:33 10° W 21:34:28 24° SW 21:34:28 24° SW
Cosmos 1048 Rocket 3.8 21:31:09 10° NNW 21:36:18 86° ENE 21:38:01 43° SSE
Cosmos 2173 Rocket 3.8 21:32:57 10° S 21:39:03 72° E 21:45:16 10° N
Abrixas 4.2 21:36:34 10° NW 21:38:12 30° NW 21:38:12 30° NW
ERS-1 Rocket 3.3 21:43:25 48° ENE 21:43:25 48° ENE 21:48:01 10° N
USA 186 4.5 21:46:43 13° WNW 21:46:43 13° WNW 21:47:17 10° NW
Cosmos 1470 2.9 21:47:42 67° WSW 21:48:00 71° W 21:51:58 10° N
Meteor 1-29 4.4 21:49:46 10° N 21:53:01 37° WNW 21:54:49 21° SW
Cosmos 1340 Rocket 3.5 21:49:48 10° N 21:52:47 48° N 21:52:47 48° N
COSMOS 2487 3.8 21:55:00 10° NNW 21:57:38 39° WNW 21:57:38 39° WNW
GP-B 4.4 21:56:43 14° SSW 22:00:13 38° W 22:04:23 10° NNW
Cosmos 1833 Rocket 2.8 21:56:20 10° NNW 22:01:57 73° WSW 22:02:59 58° S
Cosmos 1733 4.3 22:02:27 45° WNW 22:02:27 45° WNW 22:05:47 10° N
Helios 1B rocket 4.5 22:00:01 10° N 22:03:33 28° WNW 22:07:03 10° SW
Cosmos 1818 4.3 21:59:10 10° NW 22:04:21 47° WSW 22:05:43 38° SSW
Resurs 01 Rocket 4.5 22:02:06 10° SW 22:04:30 14° W 22:06:56 10° WNW
Cosmos 2251 Rocket 4.3 22:03:08 10° N 22:07:00 41° NNE 22:07:00 41° NNE
Cosmos 2016 Rocket 3.9 22:08:49 50° S 22:10:37 89° W 22:16:49 10° N
Meteor 2-17 Rocket 4.3 22:09:44 56° S 22:11:11 89° W 22:17:22 10° N
Cosmos 1725 Rocket 4.2 22:19:17 57° NNE 22:19:17 57° NNE 22:24:14 10° N
ATLAS 5 CENTAUR R/B 2.7 22:15:13 10° SW 22:19:43 46° NW 22:24:37 10° NNE
Tsikada Rocket 4.3 22:29:12 10° N 22:34:07 58° N 22:34:07 58° N
Cosmos 2082 Rocket 3.5 22:30:34 10° NW 22:35:34 32° WSW 22:36:28 31° WSW
Lacrosse 5 rocket 4.2 22:41:39 10° NW 22:42:20 15° NW 22:42:20 15° NW
USA 215 4.1 22:40:40 10° NE 22:46:51 46° NW 22:53:00 10° WSW
ARGOS 4.5 22:51:56 34° NNW 22:51:56 34° NNW 22:54:54 10° NNW
H-2A R/B 4.0 23:04:42 24° N 23:04:42 24° N 23:06:43 10° N
CZ-3 Stage 3 4.1 23:00:07 10° W 23:12:45 35° SW 23:12:45 35° SW
USA 267 4.1 23:20:08 45° NNW 23:20:08 45° NNW 23:24:32 10° NW
